sat.trackr.live / text

‹ back to catalog

STARLINK-32713

NORAD 62487 · 2025-003A

PAYLOAD ACTIVE UNKNOWN

§ Identity

Operator
Country
US
Launch date
2025-01-06
Launch site
AFETR
Launch vehicle
Mass (kg)
RCS (m²)

Purposes: comms

External: N2YO · Heavens-Above · Gunter

§ Orbital elements

Epoch: 2026-09-21T06:41:50.370144Z

Period
94.27 min
Inclination
42.9995°
Eccentricity
0.0001748
Mean motion
15.27583111 rev/d
Perigee alt
481.8 km
Apogee alt
484.2 km
Semi-major
6,861.2 km
B*
-2.0597e-4
RAAN
264.4585°
Arg perigee
276.8296°
Mean anomaly
83.2357°
Rev number
9,656

§ Raw data

STARLINK-327131 62487U 25003A   26264.27905521 -.00005926  00000+0 -20597-3 0  99972 62487  42.9995 264.4585 0001748 276.8296  83.2357 15.27583111 96569

JSON: /api/v1/satellites/62487 · /tle

For live sub-satellite position, see the globe view (requires WebGL).

§ Visibility from observer

Set your observer location to see the next 7 days of passes ≥ 10°. The values pass through the URL so the page stays shareable.

No JS? Fill the form by hand. The geolocation button needs JavaScript.